[[{"header":{"parameterUnit":"m.s-1","parameterCategory":1,"la1":30.2991,"la2":30.254,"lo1":-89.0895,"lo2":-89.0444,"dy":0.0017,"dx":0.0017,"nx":28,"ny":28,"refTime":"2025-03-22T21:00:00:Z","depth":0,"parameterNumber":2,"parameterNumberName":"U-component_of_WINDS"},"data":[0,0,0,0,0,0,0,0,0,0,0,0,0,0,0,0,0,0,0,0,0,0,0,0,0,0,0,0,0,0,0,0,0,0,0,0,0,0,0,0,0,0,0,0,0,0,0,0,0,0,0,0,0,0,0,0,0,0,0.1948,0.1949,0,0.2025,0.2026,0.2027,0.2048,0.2047,0.2047,0.2047,0.2126,0.2129,0.2131,0,0,0,0,0,0,0,0,0,0,0,0,0,0.1818,0.182,0.1948,0.1949,0.195,0.2025,0.2026,0.2027,0.2048,0.2047,0.2047,0.2046,0.2125,0.2128,0.2132,0,0,0,0,0,0,0,0,0,0,0,0,0,0.1882,0.1821,0.1948,0.1969,0.1972,0.2025,0.2026,0.2028,0.2048,0.2047,0.2047,0.2046,0.2124,0.2128,0.2132,0.2169,0,0,0.2144,0.2145,0,0,0,0,0,0,0,0,0.1879,0.1887,0.1965,0.1968,0.1971,0.2026,0.201,0.2075,0.2048,0.2019,0.2047,0.2046,0.2094,0.21,0.2116,0.2173,0.2177,0.2144,0.2146,0.2148,0.2149,0,0,0,0,0,0,0,0.1874,0.1884,0.1979,0.1966,0.197,0.1975,0.1983,0.2022,0.2059,0.2022,0.2023,0.2032,0.2095,0.2112,0.2118,0.2178,0.2144,0.2147,0.215,0.2151,0.2269,0.227,0,0,0,0,0,0,0.1866,0.188,0.1976,0.1981,0.1922,0.1978,0.1987,0.2009,0.2059,0.2066,0.2033,0.2033,0.2106,0.2114,0.2121,0.2168,0.2148,0.2152,0.2154,0.2268,0.2269,0.227,0,0,0,0,0,0,0.1863,0.1874,0.1973,0.1931,0.1944,0.1981,0.2005,0.2011,0.2028,0.2067,0.2074,0.2043,0.2106,0.2116,0.2157,0.2171,0.2153,0.2157,0.2267,0.2269,0.227,0.2261,0,0,0,0,0,0,0.1859,0.1873,0.1888,0.1931,0.1946,0.2008,0.2006,0.2013,0.2035,0.2036,0.2079,0.2086,0.2106,0.2151,0.2161,0.2176,0.216,0.2266,0.2268,0.2269,0.2261,0.2262,0.2264,0,0,0,0,0,0.1855,0.1883,0.1889,0.19,0.1965,0.2009,0.2017,0.204,0.2036,0.2051,0.2076,0.2084,0.2168,0.2155,0.2166,0.2182,0.2265,0.2267,0.2269,0.226,0.2262,0.2264,0,0,0,0,0,0,0.184,0.1889,0.1896,0.1939,0.1969,0.2012,0.2031,0.2041,0.2074,0.2073,0.21,0.211,0.2149,0.217,0.2156,0.2221,0.2217,0.2221,0.2206,0.2208,0.221,0.2203,0.2163,0,0,0,0,0,0.1842,0.1873,0.1914,0.1948,0.1963,0.1994,0.2014,0.2029,0.2062,0.2075,0.2103,0.2135,0.2168,0.2189,0.2222,0.2264,0.2273,0.228,0.2282,0.2283,0.2286,0.2309,0.2313,0.2276,0.2276,0.2276,0,0,0.1846,0.1876,0.1894,0.1946,0.1971,0.2003,0.2005,0.2039,0.2062,0.208,0.2121,0.2142,0.218,0.2221,0.2241,0.224,0.2298,0.2285,0.2286,0.2289,0.2311,0.2315,0.2318,0.2278,0.2277,0.2277,0,0,0.1869,0.1896,0.1926,0.1952,0.199,0.2011,0.2018,0.206,0.2075,0.2116,0.213,0.2158,0.2215,0.2241,0.2261,0.2294,0.2303,0.2304,0.2312,0.2334,0.2337,0.2339,0.235,0.2354,0.2307,0.2307,0.2307,0,0.1869,0.1917,0.1941,0.1974,0.1995,0.2013,0.2044,0.2068,0.2115,0.213,0.2128,0.2199,0.2226,0.2273,0.2281,0.2297,0.2306,0.2299,0.2334,0.2337,0.234,0.2351,0.2355,0.2307,0.2307,0.2307,0.2307,0,0.1915,0.1948,0.1969,0.2013,0.2038,0.2069,0.2098,0.212,0.2132,0.2153,0.2195,0.2227,0.2266,0.2279,0.2292,0.2328,0.2326,0.2329,0.2325,0.2343,0.2354,0.2358,0.2307,0.2307,0.2307,0.2307,0,0,0.1931,0.1989,0.1996,0.2016,0.206,0.2086,0.2118,0.2156,0.2174,0.2206,0.2234,0.2281,0.2284,0.2307,0.2323,0.2343,0.2366,0.2343,0.2345,0.2346,0.2407,0.2405,0.2409,0.2372,0.2373,0.2374,0.2404,0,0.1959,0.2018,0.204,0.2088,0.2118,0.2135,0.2164,0.2193,0.2214,0.2243,0.2265,0.2298,0.23,0.2314,0.2334,0.2359,0.2379,0.2357,0.2398,0.2399,0.2387,0.2415,0.2412,0.2439,0.2409,0.2409,0.241,0,0.2,0.2032,0.2083,0.2122,0.2136,0.2161,0.2197,0.2225,0.2259,0.2272,0.2298,0.2313,0.2347,0.2341,0.2389,0.2374,0.2392,0.2407,0.2408,0.2412,0.2405,0.2419,0.2448,0.2452,0.2417,0.2416,0.2416,0,0.2006,0.2062,0.2099,0.2116,0.2163,0.218,0.2201,0.2234,0.2255,0.2288,0.2302,0.2338,0.2357,0.2384,0.2408,0.2402,0.2453,0.245,0.2465,0.2465,0.2475,0.2474,0.2507,0.2488,0.2488,0.2487,0.2487,0,0.2034,0.2064,0.2102,0.2125,0.2159,0.2184,0.2218,0.2239,0.2269,0.2296,0.2313,0.2339,0.2369,0.2398,0.2417,0.2453,0.2462,0.2474,0.2478,0.2472,0.247,0.2484,0.2482,0.2489,0.2488,0.2488,0.2488,0,0.2046,0.2073,0.2114,0.2156,0.2167,0.219,0.2225,0.2248,0.2269,0.2304,0.2313,0.2347,0.2382,0.2408,0.2454,0.2467,0.2505,0.251,0.2493,0.2496,0.251,0.2508,0.2552,0.2559,0.2535,0.2535,0.2535,0,0.2062,0.2086,0.213,0.2149,0.2169,0.2201,0.2222,0.2248,0.227,0.2311,0.2329,0.2365,0.2395,0.2451,0.2479,0.2514,0.252,0.2533,0.2525,0.2518,0.2519,0.2517,0.252,0.2534,0.2534,0.2534,0.2534,0,0.2088,0.21,0.2131,0.2166,0.2192,0.2221,0.2251,0.2266,0.2297,0.2321,0.2357,0.238,0.2427,0.2463,0.2501,0.2522,0.2533,0.2536,0.2542,0.2535,0.2524,0.253,0.2496,0.2535,0.2535,0.2535,0.2535,0.2535,0.2102,0.2124,0.2158,0.2192,0.2217,0.2244,0.2267,0.2291,0.2322,0.2361,0.2375,0.2412,0.2445,0.2497,0.2518,0.2548,0.2548,0.2556,0.2558,0.2559,0.2558,0.252,0.2555,0.2555,0.2555,0.2555,0.2555,0,0.2128,0.2151,0.2182,0.2223,0.2249,0.2257,0.2291,0.2312,0.2344,0.2375,0.2404,0.2445,0.248,0.2511,0.2547,0.2564,0.257,0.2573,0.2572,0.2576,0.2556,0.2548,0.2567,0.2567,0.2567,0.2567,0.2567,0.2567,0.2145,0.2182,0.2198,0.2247,0.2269,0.2306,0.2324,0.2349,0.2373,0.2418,0.2447,0.2467,0.2497,0.2536,0.2568,0.2576,0.2588,0.2589,0.2599,0.2579,0.2578,0.2576,0.2568,0.2592,0.2592,0.2616,0.2616,0.2617]},{"header":{"parameterUnit":"m.s-1","parameterCategory":1,"la1":30.2991,"la2":30.254,"lo1":-89.0895,"lo2":-89.0444,"dy":0.0017,"dx":0.0017,"nx":28,"ny":28,"refTime":"2025-03-22T21:00:00:Z","depth":0,"parameterNumber":3,"parameterNumberName":"V-component_of_WINDS"},"data":[0,0,0,0,0,0,0,0,0,0,0,0,0,0,0,0,0,0,0,0,0,0,0,0,0,0,0,0,0,0,0,0,0,0,0,0,0,0,0,0,0,0,0,0,0,0,0,0,0,0,0,0,0,0,0,0,0,0,3.3724,3.3725,0,3.3842,3.3844,3.3845,3.3837,3.3836,3.3834,3.3832,3.3948,3.3953,3.3958,0,0,0,0,0,0,0,0,0,0,0,0,0,3.3487,3.3491,3.3724,3.3726,3.3727,3.3842,3.3844,3.3845,3.3838,3.3836,3.3833,3.3831,3.3947,3.3952,3.3958,0,0,0,0,0,0,0,0,0,0,0,0,0,3.3596,3.3492,3.3724,3.3737,3.374,3.3842,3.3844,3.3846,3.3838,3.3835,3.3833,3.383,3.3945,3.3952,3.3959,3.4054,0,0,3.398,3.3983,0,0,0,0,0,0,0,0,3.3589,3.3604,3.3734,3.3736,3.3739,3.3823,3.3803,3.3915,3.3839,3.3801,3.3832,3.3829,3.3908,3.3918,3.3946,3.4059,3.4064,3.3981,3.3985,3.3988,3.399,0,0,0,0,0,0,0,3.3582,3.3599,3.3771,3.3736,3.3739,3.3736,3.3748,3.3824,3.3867,3.3804,3.3803,3.3818,3.3909,3.3939,3.3949,3.4066,3.3981,3.3987,3.3991,3.3994,3.4263,3.4265,0,0,0,0,0,0,3.3572,3.3593,3.3767,3.3774,3.3657,3.3742,3.3756,3.3798,3.3867,3.3874,3.382,3.3817,3.3928,3.394,3.3953,3.4068,3.3988,3.3995,3.3999,3.426,3.4263,3.4266,0,0,0,0,0,0,3.3567,3.3588,3.3762,3.3684,3.3706,3.3749,3.3796,3.3802,3.3832,3.3879,3.3886,3.3843,3.3927,3.3943,3.4029,3.4072,3.3998,3.4004,3.4256,3.4261,3.4265,3.43,0,0,0,0,0,0,3.356,3.3586,3.3624,3.3685,3.371,3.3838,3.3799,3.3806,3.3845,3.3842,3.3902,3.391,3.3926,3.4019,3.4036,3.408,3.401,3.4253,3.4258,3.4263,3.4295,3.4305,3.4313,0,0,0,0,0,3.3552,3.3628,3.3626,3.3647,3.3758,3.3841,3.3855,3.3874,3.3848,3.3886,3.3916,3.3908,3.4065,3.4027,3.4047,3.4094,3.425,3.4257,3.4263,3.4291,3.4303,3.4313,0,0,0,0,0,0,3.357,3.3636,3.3634,3.3733,3.3782,3.3839,3.3887,3.3886,3.3941,3.3936,3.3956,3.3969,3.4056,3.4084,3.4041,3.4189,3.4154,3.4164,3.4168,3.418,3.4189,3.418,3.4016,0,0,0,0,0,3.3585,3.3648,3.3702,3.3784,3.3809,3.3844,3.388,3.3891,3.3941,3.3961,3.3997,3.4045,3.4105,3.4144,3.4202,3.4299,3.4311,3.4341,3.435,3.4357,3.4366,3.4419,3.4432,3.4288,3.4288,3.4288,0,0,3.3618,3.3662,3.37,3.3789,3.3828,3.3891,3.3861,3.3929,3.3976,3.3971,3.4055,3.4083,3.4137,3.423,3.4272,3.4255,3.4409,3.4366,3.4371,3.4376,3.4427,3.444,3.4452,3.4292,3.4291,3.4291,0,0,3.3709,3.375,3.3822,3.3861,3.3921,3.3944,3.3961,3.402,3.4039,3.4124,3.4121,3.4176,3.4279,3.4318,3.4351,3.4456,3.4451,3.4475,3.4522,3.4573,3.4584,3.4594,3.4631,3.4644,3.4483,3.4483,3.4483,0,3.3742,3.3838,3.3859,3.3928,3.3966,3.3966,3.4038,3.4075,3.415,3.4176,3.4156,3.4286,3.4322,3.4423,3.4449,3.4476,3.4495,3.4468,3.4581,3.4592,3.4601,3.4637,3.4651,3.4486,3.4486,3.4485,3.4485,0,3.3875,3.3942,3.3993,3.4067,3.4111,3.4181,3.421,3.4252,3.4258,3.4283,3.4368,3.4412,3.4479,3.4503,3.451,3.4605,3.4593,3.4577,3.4542,3.4617,3.4651,3.4665,3.4489,3.4489,3.4488,3.4487,0,0,3.3981,3.4065,3.4083,3.4117,3.4182,3.4233,3.4303,3.4369,3.4404,3.4456,3.4514,3.4601,3.4587,3.4624,3.4635,3.468,3.476,3.4659,3.466,3.4675,3.4866,3.4877,3.4892,3.4756,3.4759,3.4761,3.4861,0,3.4079,3.4204,3.4224,3.4333,3.4394,3.4395,3.4455,3.4501,3.4525,3.458,3.4606,3.4667,3.4645,3.4667,3.4712,3.4741,3.4798,3.4734,3.4809,3.4811,3.4795,3.491,3.4922,3.5014,3.4874,3.4877,3.4878,0,3.421,3.4266,3.4382,3.4438,3.4465,3.4519,3.4581,3.4634,3.4685,3.4699,3.4741,3.4746,3.4817,3.4779,3.4875,3.4831,3.4862,3.4881,3.4885,3.4892,3.4849,3.492,3.5044,3.5058,3.4899,3.4898,3.4896,0,3.4274,3.4379,3.4462,3.449,3.4559,3.4596,3.4626,3.4675,3.4714,3.4767,3.4792,3.4853,3.4886,3.4932,3.4952,3.4923,3.5047,3.5011,3.506,3.5059,3.5086,3.5084,3.5216,3.5107,3.5107,3.5107,3.5106,0,3.4381,3.4452,3.4492,3.4543,3.4621,3.4643,3.4719,3.4748,3.4791,3.4846,3.485,3.4901,3.4925,3.498,3.4996,3.5073,3.5088,3.51,3.5104,3.51,3.5098,3.5121,3.5114,3.511,3.5109,3.5109,3.5108,0,3.4467,3.4497,3.4587,3.4645,3.4661,3.4716,3.4764,3.4813,3.4837,3.4906,3.4924,3.4961,3.5025,3.5051,3.5129,3.514,3.5228,3.5227,3.5211,3.5212,3.5259,3.5254,3.5411,3.5432,3.5309,3.531,3.5311,0,3.4533,3.4588,3.4651,3.4689,3.4721,3.4782,3.4821,3.4844,3.4885,3.4947,3.4987,3.5052,3.5105,3.5207,3.524,3.53,3.5299,3.535,3.5308,3.5302,3.5299,3.5296,3.5301,3.5357,3.5359,3.536,3.536,0,3.4647,3.4659,3.4717,3.478,3.4827,3.4878,3.4926,3.4957,3.4986,3.5032,3.5098,3.5139,3.522,3.5283,3.5345,3.5373,3.5372,3.5374,3.5388,3.5384,3.5373,3.5379,3.5232,3.537,3.5369,3.5368,3.5368,3.5367,3.4725,3.4773,3.4825,3.4889,3.4929,3.4974,3.5022,3.5053,3.5109,3.5178,3.5187,3.5258,3.5306,3.5389,3.542,3.5475,3.5462,3.5483,3.5488,3.5493,3.5496,3.5365,3.5486,3.5486,3.5486,3.5486,3.5485,0,3.4838,3.4872,3.4931,3.5,3.5049,3.5045,3.5099,3.514,3.5203,3.525,3.5302,3.5378,3.5439,3.5477,3.5538,3.5575,3.5575,3.559,3.5587,3.5594,3.5504,3.5486,3.5589,3.5589,3.5588,3.5588,3.5588,3.5588,3.4903,3.4984,3.5002,3.5103,3.5135,3.5206,3.5237,3.5278,3.5316,3.5401,3.5452,3.5477,3.552,3.5584,3.564,3.5649,3.5671,3.5687,3.5695,3.5611,3.56,3.559,3.5572,3.5692,3.5692,3.578,3.5781,3.5782]}]]